Find Kosmos-2404

NORAD ID: 28114 Int'l Des: 2003-056 Owner: KVR/IACG Country: RU Constellation: GLONASS operational
MEOCIRCULAR

Live Position

Loading 3D Globe...

About Kosmos-2404

Description loading...

Upcoming Passes

Passes for default location (London). Set your location on the main map for personalized predictions.

Altitude History

Loading altitude history...

Two-Line Element Set

1 28114U 03056C 26139.54436394 -.00000025 00000-0 00000+0 0 9996
2 28114 64.2571 63.2516 0060584 62.3797 136.0571 2.13104520174635
Epoch: May 19, 2026 • Age: 18 hours

Current Status

Altitude 18982.6 km
Velocity 3.98 km/s
Sub-Earth Point 48.10°N, 110.82°E
Launch Date Dec 10, 2003
Age 22.4 years
Type other

Technical Details

Classification Payload
Mass 1415.00 kg
Dry Mass 1200.00 kg
Total Mass 1415.00 kg
Length 4.00 m
Diameter 1.50 m
Span 7.80 m
Shape Cyl + Ant + 2 Pan
Manufacturer NPOPMR
Bus Type Uragan
Phase Status In Orbit
Owner/State KVR/IACG/RU

Most Searched